GFSFLT1_925_rhum_129.txt.gz
RH
48 50 53 52 55 58 62 67 73 69 63 65 71 67 72 67 69 76 77 81 83 80 69 70 73 68 66 67 79 87 97 92
46 50 52 52 56 56 58 62 70 69 65 63 59 66 72 68 69 72 74 79 84 84 87 84 87 81 82 80 74 70 67 71
45 48 51 53 56 57 56 58 63 66 64 66 65 65 63 67 67 68 72 77 88 88 97 96 97 95 95 97 96 89 72 63
45 49 55 58 61 63 61 63 63 70 72 62 63 58 53 58 58 68 73 79 85 94 95 94 96 95 96 97 99 100 97 82
46 53 60 62 64 67 69 69 68 71 76 70 71 65 62 64 61 65 68 76 80 89 92 93 96 96 97 99 97 100 100 98
54 61 63 62 64 64 67 67 67 76 78 81 76 74 73 71 73 73 68 72 78 84 90 91 94 96 98 100 99 100 100 100
58 62 62 63 65 67 66 64 63 71 75 78 83 84 85 82 86 85 85 79 80 87 91 94 95 96 98 99 100 100 100 99
58 56 58 60 59 64 64 64 64 72 77 79 80 81 80 78 84 87 92 92 94 97 97 97 98 98 98 99 100 100 99 99
60 58 57 56 55 68 70 64 66 74 78 81 83 86 85 82 86 89 91 95 95 98 100 100 99 100 98 99 98 99 98 96
64 61 58 56 59 73 78 75 72 79 82 82 84 84 86 85 86 90 91 93 91 96 97 100 97 97 98 99 99 99 99 99
60 52 53 56 67 72 80 81 81 82 84 85 85 86 87 86 86 90 91 92 93 93 96 95 94 96 97 98 96 97 99 98
57 52 50 56 62 68 78 81 82 82 83 85 85 85 84 86 88 91 93 94 94 94 95 93 92 94 96 96 94 96 96 98
48 44 47 53 60 67 73 80 80 81 82 82 82 81 80 81 85 89 92 97 96 94 94 90 90 91 94 95 95 97 98 98
46 44 47 52 62 68 72 76 74 71 71 70 69 69 66 66 68 72 74 74 75 79 79 76 78 87 92 90 89 91 93 97
46 43 48 54 62 65 68 73 71 68 68 68 68 64 63 66 67 67 69 67 66 66 67 67 65 76 94 96 86 86 87 90
47 46 49 58 63 64 67 67 69 66 68 70 67 62 65 68 70 69 70 70 68 68 67 66 62 67 89 95 84 81 83 84
48 46 52 57 62 62 66 62 59 59 59 60 64 66 66 71 71 72 70 70 72 72 71 70 69 64 90 93 83 83 86 82
48 50 58 59 63 65 66 62 55 55 55 60 67 75 77 79 76 78 79 79 79 83 82 77 76 76 85 96 85 84 82 85
62 66 65 69 72 69 64 59 58 57 60 66 69 74 77 78 83 88 90 90 89 88 86 86 81 84 83 91 84 85 89 88

GFSFLT1_925_rhum_132.txt.gz
RH
44 47 51 51 54 54 56 63 66 63 63 61 61 66 72 69 73 73 74 80 83 82 81 82 84 81 83 82 84 82 79 74
42 47 51 52 57 56 58 60 64 66 62 64 62 63 64 68 67 71 76 80 84 87 91 89 90 91 92 92 93 88 82 75
42 46 52 56 60 62 60 62 64 70 69 64 63 59 58 58 64 68 73 79 85 88 92 91 95 93 91 92 92 93 91 89
42 48 57 59 62 65 65 66 66 72 74 70 67 59 58 63 62 67 68 77 81 87 89 91 95 95 92 93 93 95 93 91
44 50 56 57 61 64 65 64 66 72 76 77 73 71 69 69 74 75 72 74 79 86 89 93 93 95 94 96 96 96 93 94
50 55 56 58 62 64 64 60 65 71 73 77 78 80 80 77 80 81 81 84 86 92 90 93 93 94 95 94 94 92 95 98
53 57 56 57 60 62 60 59 64 72 75 77 80 79 78 77 80 82 88 87 90 94 96 96 95 96 97 97 96 98 96 97
52 52 51 55 57 63 60 60 65 73 77 79 82 82 81 79 85 86 87 89 89 94 93 95 94 98 98 97 98 96 96 96
55 52 51 50 58 68 68 63 67 77 80 80 83 84 84 86 86 90 87 91 88 90 90 93 94 95 96 94 95 99 97 99
62 57 54 51 58 73 75 72 72 79 81 81 83 86 84 86 89 87 92 94 90 93 93 96 94 95 93 93 97 96 95 96
60 53 52 54 62 74 77 78 79 81 84 83 85 82 83 85 88 92 92 92 92 92 93 94 92 91 97 91 95 94 95 96
57 50 50 56 61 70 76 78 80 81 83 84 82 82 80 83 87 89 92 92 90 88 86 86 91 92 97 97 95 95 98 98
51 49 47 54 58 64 74 77 77 77 80 76 74 72 70 70 73 75 74 74 75 74 74 74 82 84 90 100 92 93 96 98
49 43 45 50 59 64 70 73 69 68 68 67 65 63 63 65 67 69 68 68 68 70 69 68 73 84 90 95 86 87 88 91
49 44 46 51 58 64 70 73 70 66 69 69 67 65 66 69 69 69 70 68 68 69 70 69 67 81 90 92 83 82 79 81
48 45 48 55 58 62 64 69 70 66 70 68 64 64 68 71 72 72 72 74 74 74 72 73 71 82 97 96 80 77 78 80
46 44 48 55 58 61 64 61 61 59 59 64 68 69 72 74 74 77 78 79 82 83 85 80 85 80 96 100 85 85 87 91
48 48 50 54 57 61 63 59 55 55 59 64 73 77 81 83 84 86 87 87 86 85 84 91 88 85 90 98 92 88 92 98
51 53 60 67 70 66 62 56 55 59 64 68 72 76 80 85 87 91 88 84 83 86 84 81 92 85 84 94 98 86 92 92

GFSFLT1_925_rhum_135.txt.gz
RH
50 51 54 57 58 60 63 65 67 65 64 61 59 68 62 61 65 68 74 76 74 68 78 81 74 76 81 81 80 76 77 88
49 52 56 60 62 63 64 67 67 66 68 68 63 63 61 65 70 70 72 76 78 78 88 88 86 85 90 92 93 92 89 88
54 61 61 62 64 65 67 68 70 71 73 70 69 67 68 73 73 77 78 80 81 80 86 94 94 94 94 90 93 92 91 92
59 62 60 62 65 66 66 68 70 75 74 72 65 63 65 69 75 77 82 88 88 85 85 92 94 94 94 95 94 92 92 88
59 63 60 63 65 64 65 67 71 74 76 78 78 80 79 81 80 83 81 86 87 86 87 91 94 95 95 96 95 95 91 92
66 63 60 63 64 64 64 68 71 75 78 78 80 80 78 80 81 83 90 89 93 89 94 94 92 92 96 95 94 94 93 95
63 58 61 62 64 61 61 68 74 76 78 80 81 81 80 84 84 86 88 88 91 88 91 91 89 92 93 93 94 94 99 96
66 66 61 65 64 64 64 70 77 78 79 81 82 82 85 84 87 89 92 92 95 90 90 95 94 92 90 92 97 94 98 98
68 63 59 68 68 69 67 73 79 80 79 82 83 83 86 88 84 91 95 92 92 88 94 95 93 94 91 96 93 98 96 99
73 63 57 70 72 75 74 76 80 82 81 81 82 83 82 86 86 89 89 87 90 88 91 90 96 98 99 93 96 97 97 98
73 65 62 70 74 78 78 79 79 82 82 82 82 82 82 85 86 88 84 85 83 85 84 82 91 95 98 100 99 99 98 98
73 67 66 67 74 78 78 79 79 82 83 80 77 77 76 78 80 76 78 74 75 76 70 73 85 93 97 99 98 97 98 100
68 59 66 67 74 76 78 78 78 77 77 73 72 66 68 69 72 68 68 70 74 70 72 61 82 89 91 99 95 90 91 98
67 59 62 66 70 74 75 75 72 70 72 65 64 65 68 69 71 70 69 69 75 71 70 73 77 90 90 95 79 84 81 90
59 57 61 66 67 71 74 72 67 67 69 67 66 70 72 72 73 73 73 76 82 80 65 74 84 93 93 93 86 88 59 88
57 57 64 66 69 70 73 71 68 69 69 65 68 71 73 74 75 77 76 77 87 88 67 80 86 99 100 92 91 92 73 76
55 54 60 63 66 68 70 71 68 68 66 70 72 74 76 80 81 82 81 74 82 91 79 90 87 97 100 94 91 96 91 86
55 57 59 64 66 64 64 62 60 62 69 75 77 78 81 86 80 76 80 79 71 73 79 87 89 89 100 100 99 90 94 95
56 59 63 67 64 63 60 57 59 63 72 77 81 87 84 88 92 90 81 78 85 90 74 84 87 84 94 89 93 88 80 80

GFSFLT1_925_rhum_138.txt.gz
RH
61 60 61 62 63 65 66 64 63 62 62 62 67 70 72 76 77 76 73 71 67 64 72 75 76 81 81 79 80 69 80 86
65 65 63 62 64 65 68 66 67 65 64 63 73 80 77 80 84 84 80 78 78 76 78 80 82 90 91 91 93 87 84 85
70 67 63 63 65 66 69 68 69 70 70 72 73 78 77 76 80 83 84 83 83 82 82 87 92 94 94 94 95 96 90 86
69 69 67 66 66 67 70 68 70 71 71 68 69 68 76 74 79 82 89 85 87 83 84 89 92 93 95 93 94 94 95 91
67 73 73 66 66 69 69 69 70 72 71 72 77 81 86 83 83 86 88 88 87 90 92 91 88 91 93 94 95 93 94 95
71 74 70 68 67 69 71 70 71 73 73 75 78 82 82 82 84 85 84 87 84 84 87 89 91 90 91 91 93 94 98 97
70 71 69 68 64 69 70 68 74 75 76 80 82 84 85 84 89 90 91 91 84 88 88 90 93 93 92 97 96 96 97 98
73 74 77 68 64 70 73 70 77 80 80 82 83 84 84 85 90 92 89 93 90 91 90 90 95 95 97 95 95 98 98 100
74 72 74 71 68 72 74 74 80 81 81 83 82 82 83 85 87 86 87 89 88 85 79 88 93 94 95 95 97 99 99 97
76 73 74 73 72 74 77 79 81 81 81 82 82 82 83 85 86 82 83 86 90 83 73 89 93 96 99 96 96 98 98 94
77 75 79 77 74 76 78 80 82 80 81 81 81 82 84 84 81 75 76 81 88 69 63 89 91 90 90 96 95 99 98 96
74 75 79 77 76 77 79 81 81 82 81 78 77 78 76 75 76 80 79 72 72 67 56 88 90 93 94 91 96 92 96 96
72 73 82 86 81 80 80 80 80 82 76 77 76 74 74 72 70 70 76 73 69 70 56 88 91 89 85 91 82 89 92 97
74 73 79 83 83 80 79 78 76 78 79 65 67 70 71 72 71 70 77 77 71 54 58 88 93 96 90 92 52 87 90 88
69 70 73 79 82 79 77 75 75 79 66 67 71 73 74 74 73 74 79 83 69 50 80 94 98 93 94 92 57 67 86 97
65 66 69 76 80 80 74 73 74 69 68 71 75 75 75 75 75 74 82 87 66 63 85 94 99 92 95 91 73 72 83 87
72 62 67 72 76 78 75 72 73 70 68 73 75 76 78 80 78 70 77 84 66 72 88 92 99 98 94 98 96 92 95 92
64 61 65 70 74 77 77 75 73 69 70 75 76 78 83 79 74 69 63 63 67 78 87 94 96 97 99 97 82 83 90 88
62 64 66 72 77 78 75 73 71 72 76 79 77 81 84 78 76 77 81 72 67 82 85 87 91 96 100 91 77 78 83 90

GFSFLT1_925_rhum_141.txt.gz
RH
69 68 67 65 63 60 59 57 59 64 70 75 74 75 76 75 78 78 74 73 70 67 68 69 70 69 70 73 72 70 77 78
72 69 67 67 68 65 64 60 60 60 68 78 80 79 79 78 79 79 78 78 76 74 76 78 82 86 88 88 86 87 86 81
74 74 68 66 71 69 67 65 64 63 65 73 79 77 78 78 77 78 80 79 77 78 80 84 86 88 90 92 94 96 92 89
74 76 72 71 73 71 69 66 64 67 68 72 76 77 77 76 79 80 84 82 81 83 85 85 87 90 92 92 93 93 98 90
71 76 79 73 74 72 71 68 66 67 65 64 68 74 79 85 84 84 81 81 82 86 88 88 88 87 90 93 96 96 98 98
73 78 76 73 74 73 73 70 69 70 69 70 72 80 84 84 84 85 84 82 83 84 82 84 86 89 89 94 94 95 96 99
73 77 77 79 76 75 73 70 74 74 75 78 78 78 82 85 87 86 87 84 85 84 84 88 86 92 95 92 95 97 99 100
80 83 84 82 80 77 75 73 79 77 78 81 81 81 83 87 85 87 87 88 82 76 88 92 91 90 94 90 96 98 99 99
79 80 80 81 82 78 76 76 81 79 80 83 84 82 85 86 83 85 88 92 87 71 91 94 98 92 93 96 99 100 91 97
81 80 79 80 82 78 76 76 81 81 82 82 82 82 84 82 80 80 83 90 80 62 89 91 93 99 97 92 98 100 86 99
80 78 81 81 78 77 76 76 81 81 81 82 81 81 83 81 76 80 80 80 68 57 85 88 88 88 91 87 92 100 89 98
80 78 82 82 77 79 79 80 81 81 80 80 79 76 78 78 82 78 73 70 66 55 86 88 88 85 82 80 88 91 90 78
79 79 85 88 86 83 83 82 82 81 79 79 81 78 76 71 74 75 72 69 61 53 87 89 89 89 76 54 84 87 77 82
79 82 84 85 89 85 82 82 81 80 81 78 78 75 73 73 75 76 74 66 47 61 89 95 97 94 75 45 76 77 80 92
76 80 81 84 86 86 81 80 80 83 75 70 72 74 74 74 78 78 76 65 50 82 94 100 95 90 74 54 66 76 86 92
74 77 78 81 83 84 82 79 81 81 70 72 76 77 76 76 77 81 81 60 63 90 96 98 95 95 94 69 82 84 86 89
71 71 79 82 83 88 84 86 85 71 72 77 78 78 78 76 73 79 80 62 69 85 97 100 93 100 97 96 75 80 92 95
69 79 79 85 84 82 83 86 83 73 75 79 79 80 81 76 66 66 66 70 74 81 92 91 90 96 92 95 83 80 80 86
74 78 77 77 79 82 90 98 91 78 79 79 82 83 80 73 63 58 69 76 80 85 86 92 93 93 91 95 83 88 87 86

GFSFLT1_925_rhum_144.txt.gz
RH
71 67 64 63 63 61 61 65 69 74 71 70 70 70 72 71 71 71 69 68 66 64 64 65 67 68 69 71 74 72 85 77
71 70 69 68 66 63 61 62 71 76 74 73 70 75 75 72 71 69 67 66 66 66 67 67 68 72 79 81 83 84 83 83
75 80 75 71 69 67 64 63 66 75 76 77 74 74 76 74 73 70 68 66 67 69 72 77 79 79 82 88 91 95 96 90
74 80 79 76 74 69 65 65 65 69 72 76 78 75 73 72 75 75 76 76 78 80 82 84 84 85 89 93 91 93 97 90
73 76 83 80 76 72 67 65 64 69 73 74 73 72 74 83 81 81 78 78 81 81 83 82 83 83 86 86 86 91 91 99
76 75 81 79 77 74 70 66 65 66 64 64 62 68 78 82 82 80 80 81 78 79 81 81 81 83 83 83 88 89 96 99
74 77 81 84 81 78 73 68 71 69 66 69 67 75 83 81 83 80 80 71 70 78 80 81 84 86 90 91 93 95 94 96
80 82 87 94 87 81 75 72 77 77 76 76 76 80 81 80 83 84 86 76 68 84 84 85 88 92 92 97 99 88 91 95
81 83 87 93 89 81 78 76 80 80 82 82 81 82 80 81 84 88 92 84 65 82 86 90 98 99 92 96 98 91 91 89
84 85 87 92 89 82 78 78 80 81 82 82 82 83 80 81 81 82 89 73 62 73 85 85 85 87 88 95 99 93 87 96
85 83 86 89 86 80 77 76 79 81 81 81 83 86 78 78 77 78 73 66 58 63 85 89 87 84 84 80 92 95 68 91
85 80 83 87 86 81 81 81 80 82 83 82 82 82 80 79 73 73 69 64 55 68 86 87 83 75 65 70 83 76 68 80
81 81 83 90 90 87 83 82 81 82 82 80 79 78 74 73 72 71 68 59 49 71 88 90 87 73 50 61 76 71 79 90
86 85 84 88 92 91 85 82 81 82 82 81 82 76 72 74 74 72 67 53 50 84 91 94 90 71 47 57 67 78 88 95
85 85 84 86 89 90 86 83 82 83 81 84 80 76 73 75 77 74 67 53 66 84 92 96 88 73 57 65 72 80 88 92
81 82 82 83 86 88 87 85 85 84 80 76 77 76 76 77 78 77 66 53 68 86 93 95 93 95 89 64 79 86 90 93
75 77 80 82 83 86 87 90 92 83 81 77 80 78 78 79 81 79 64 56 77 92 100 99 95 93 95 90 74 87 95 98
74 77 76 78 79 81 88 94 89 87 80 86 82 79 79 77 77 74 62 62 79 94 97 96 88 93 94 98 76 80 85 88
74 70 72 76 85 92 91 90 92 96 97 84 84 82 79 73 70 61 65 72 76 91 91 92 90 91 93 99 86 86 87 87

GFSFLT1_925_rhum_147.txt.gz
RH
66 70 72 72 72 67 67 80 72 68 67 66 68 69 71 72 72 66 62 62 60 63 67 67 77 84 85 86 87 84 84 80
67 72 76 75 75 71 69 75 77 71 80 80 81 82 82 83 79 65 62 61 61 62 74 78 81 84 88 87 83 83 80 83
65 74 78 74 74 74 71 76 79 77 77 74 75 80 84 81 76 65 63 62 62 65 72 83 83 84 88 89 87 79 78 83
65 71 75 75 75 75 72 71 79 81 78 74 73 74 79 79 80 82 76 71 70 73 80 87 90 91 90 90 89 88 76 79
60 68 75 75 76 77 71 70 73 77 77 78 78 70 69 82 86 87 88 75 74 74 78 95 97 94 92 89 90 88 83 82
62 66 71 75 82 80 76 77 78 77 77 77 75 74 78 87 87 88 85 76 75 78 84 98 100 95 98 97 93 91 88 85
59 66 73 79 83 82 79 76 77 71 72 70 61 72 83 82 84 82 80 85 92 85 92 99 100 98 99 100 95 93 90 90
64 68 73 82 86 85 80 77 82 74 67 66 67 79 83 84 84 84 79 79 90 91 93 99 100 99 98 100 93 94 92 89
65 66 71 80 84 83 78 80 85 83 80 79 78 84 84 86 88 90 80 76 88 90 96 98 100 96 97 100 91 90 94 93
68 68 75 80 82 82 81 80 84 87 87 88 89 89 88 90 94 93 76 76 82 88 96 97 98 94 96 97 91 83 92 93
70 71 77 79 81 83 84 82 82 87 88 88 89 89 89 90 86 77 68 64 71 90 96 94 86 85 87 86 85 81 80 84
72 72 78 80 82 85 86 85 87 88 89 89 93 89 91 86 82 78 70 66 79 91 96 87 76 77 80 78 77 78 78 74
70 71 78 81 82 84 85 85 87 89 91 93 87 84 86 81 79 73 64 63 70 95 97 86 74 69 72 72 71 75 73 68
73 72 76 79 83 86 87 90 88 91 92 89 86 82 84 79 76 69 68 76 88 94 93 85 77 68 64 67 71 75 77 72
75 74 75 79 83 85 85 88 90 90 89 87 83 85 85 81 78 74 72 79 87 89 88 87 80 71 66 65 67 73 76 74
78 77 75 78 82 82 84 90 92 91 91 90 88 89 90 84 81 78 75 81 89 85 86 86 83 77 70 71 69 72 73 69
76 76 74 77 79 82 85 91 96 94 94 93 91 92 92 90 85 81 78 88 92 86 89 81 76 80 95 75 76 71 73 68
72 75 75 77 82 89 93 92 92 90 94 93 93 93 94 96 89 79 78 90 94 94 88 82 79 84 95 96 92 83 82 84
70 75 81 88 92 95 92 97 96 94 96 97 97 94 97 96 92 78 82 97 98 100 99 90 84 87 96 92 96 96 94 93

GFSFLT1_925_rhum_150.txt.gz
RH
40 44 43 46 50 58 66 69 74 75 73 71 70 71 70 66 68 74 77 79 77 67 70 73 66 62 64 69 73 67 66 62
38 46 49 52 55 58 64 70 76 71 66 61 61 63 68 67 69 76 77 80 80 72 63 65 63 66 73 70 64 59 53 60
38 48 53 55 56 56 59 67 73 66 60 57 58 62 64 63 67 75 77 80 81 77 74 71 74 66 73 73 72 59 55 65
36 46 53 55 54 56 57 61 69 66 64 70 68 69 66 61 63 66 79 82 85 83 82 80 76 72 73 76 77 75 60 61
30 42 50 53 53 56 56 60 66 71 75 63 60 48 44 50 58 69 76 82 85 86 86 84 82 78 80 75 78 74 70 63
27 39 47 51 54 59 60 63 64 69 74 64 64 52 58 58 63 70 76 81 83 86 86 86 83 80 86 84 80 77 71 67
24 36 46 51 55 60 62 64 63 70 72 71 64 60 56 58 63 62 64 71 78 87 88 87 86 84 86 81 81 81 76 74
29 36 45 51 58 62 62 60 61 70 72 71 67 62 60 63 64 60 63 70 74 86 87 86 82 84 86 80 79 80 80 76
36 38 46 51 60 63 60 57 59 65 67 65 65 64 63 64 65 65 64 67 74 85 85 85 83 82 82 78 70 72 79 78
41 41 47 51 61 64 62 56 56 61 63 67 69 67 68 70 77 72 67 72 78 82 82 83 80 79 78 70 65 64 68 71
44 45 51 55 62 65 65 59 56 62 68 70 72 73 75 78 78 67 66 72 74 79 77 73 73 72 67 61 57 60 56 59
44 48 53 61 65 67 69 63 62 68 72 72 73 75 78 76 72 69 68 70 72 73 72 66 64 63 61 58 58 57 57 58
40 46 55 62 66 67 70 66 66 70 72 74 76 79 78 75 74 72 71 67 71 74 67 61 57 57 56 55 52 54 50 54
43 49 54 64 67 67 68 70 68 70 74 81 81 83 78 78 74 70 65 66 71 72 66 61 56 53 53 54 55 56 54 55
50 52 56 63 67 70 70 72 69 72 79 85 87 83 78 73 70 67 64 64 65 66 65 63 60 54 52 50 52 54 52 56
57 57 56 65 69 72 72 76 77 83 85 82 84 83 77 74 71 64 65 64 63 68 68 68 62 56 51 50 52 52 49 49
59 60 60 66 71 74 73 75 82 85 86 85 89 89 82 76 70 67 66 66 66 67 64 61 60 62 63 58 49 48 47 42
71 62 61 65 71 74 72 82 87 88 93 94 91 88 81 77 73 66 65 67 67 68 64 61 67 77 91 78 62 60 62 65
74 82 78 73 74 80 85 93 100 100 100 98 98 93 95 96 97 89 80 81 86 93 85 72 73 85 96 89 80 80 80 83

GFSFLT1_925_rhum_156.txt.gz
RH
24 30 34 34 36 47 53 59 65 66 62 63 65 58 56 58 60 68 72 69 66 62 68 64 56 54 61 64 62 57 55 53
21 27 34 34 36 47 52 59 66 66 64 62 61 61 57 56 61 69 70 68 65 54 58 58 58 62 66 66 61 52 53 52
18 30 37 36 38 45 50 59 66 64 60 54 55 56 56 58 64 67 70 70 66 62 59 61 58 69 73 73 67 57 55 61
15 35 41 39 38 44 49 55 64 62 53 49 51 54 54 58 65 69 70 71 70 71 68 70 67 66 74 74 69 63 58 60
14 32 41 42 42 45 47 51 57 61 52 48 55 58 60 58 63 64 71 74 77 76 75 73 69 71 68 68 70 65 59 56
15 16 39 41 45 48 48 48 53 58 53 51 55 55 52 51 56 66 74 77 78 78 78 77 75 78 79 76 74 65 64 60
26 22 26 40 47 48 50 50 50 54 54 55 57 54 47 49 62 68 73 75 78 79 80 80 80 79 78 78 76 73 71 67
31 29 36 41 47 48 50 51 49 51 56 60 58 56 48 49 61 63 67 72 77 81 82 81 81 79 76 76 75 75 74 73
36 34 33 38 44 47 49 52 52 50 55 61 61 58 51 49 56 55 59 66 74 80 79 79 80 77 70 67 68 74 74 74
32 34 34 33 38 44 49 52 53 53 52 60 62 61 54 49 54 53 57 65 78 80 79 77 76 71 65 62 63 65 67 67
28 28 34 35 35 41 51 54 54 52 53 59 62 61 54 52 54 58 62 69 74 78 74 71 69 66 59 55 57 57 57 56
30 32 33 38 40 44 56 59 58 56 55 62 62 58 56 60 63 62 68 69 77 74 68 66 62 58 54 54 54 55 58 59
28 32 33 37 42 46 56 62 63 59 60 62 60 61 63 69 66 67 68 73 73 67 62 58 56 56 54 47 43 52 54 55
25 30 35 37 40 48 54 62 65 63 58 63 68 70 74 74 70 71 72 72 68 60 56 53 53 55 54 54 52 52 54 56
21 29 39 41 44 50 55 59 64 64 59 64 70 74 78 74 73 74 76 78 66 58 54 53 52 53 54 55 53 55 59 65
24 36 43 46 49 52 58 61 65 66 63 66 71 78 77 76 80 83 84 80 72 60 58 58 61 60 53 50 51 52 59 64
30 32 36 44 53 58 58 63 66 68 69 70 78 81 82 83 84 80 77 75 74 76 86 86 70 50 51 51 50 48 51 55
32 35 41 49 54 66 65 66 69 70 73 83 86 89 90 91 91 90 99 92 92 98 95 82 64 55 49 47 45 43 43 45
43 49 54 60 67 76 74 71 74 77 87 99 100 99 99 99 98 98 98 98 97 98 96 93 89 86 54 55 60 63 69 72

GFSFLT1_925_rhum_159.txt.gz
RH
39 43 42 44 46 51 57 61 65 67 65 65 64 62 62 64 64 60 60 64 64 63 63 60 59 59 58 58 60 55 56 50
34 43 42 45 50 53 56 62 67 66 64 64 63 60 59 61 64 64 59 60 61 57 53 56 56 58 58 57 57 57 53 46
29 46 43 50 57 56 56 58 64 65 63 63 62 58 58 60 62 67 65 61 58 56 53 58 57 57 59 62 60 61 60 54
28 48 45 55 59 57 56 60 63 64 62 60 59 61 59 63 65 67 68 63 62 59 58 62 69 64 62 66 64 62 62 58
38 49 52 53 56 59 62 63 63 62 59 56 57 59 60 62 62 66 70 71 69 69 68 66 69 67 66 68 63 61 60 62
38 48 49 57 56 57 58 60 61 61 55 53 56 57 56 56 61 67 71 75 76 74 73 71 71 69 70 69 65 62 60 60
38 48 52 56 51 50 53 57 60 60 55 56 54 56 56 58 65 66 72 75 79 78 78 75 73 74 70 72 67 66 64 64
39 51 58 51 50 48 47 49 58 60 57 55 55 55 54 55 61 64 71 76 80 81 81 80 78 78 75 71 69 67 67 63
42 42 49 52 48 48 49 50 51 56 58 56 57 56 57 53 55 62 66 73 78 82 82 80 78 75 73 68 67 66 66 68
39 40 35 39 51 52 51 51 52 51 55 58 59 60 60 50 53 58 65 72 78 82 80 79 75 69 67 64 69 69 63 63
40 44 39 38 41 49 53 53 54 53 53 59 62 62 62 50 54 58 64 72 78 80 79 77 72 64 63 62 63 63 63 64
39 38 39 38 45 50 56 57 56 55 54 58 63 65 60 52 58 61 65 74 78 79 75 73 68 58 55 57 57 56 59 61
37 35 38 41 44 55 54 57 58 57 55 60 64 63 59 59 61 65 69 73 78 76 70 66 62 59 54 52 59 57 57 58
36 46 51 49 46 51 62 60 59 60 59 57 62 62 63 65 65 69 69 74 75 69 66 63 63 58 53 54 56 57 58 58
40 55 59 49 48 52 54 62 66 63 62 61 61 64 67 70 68 68 72 74 69 62 60 59 57 56 53 52 56 61 62 62
50 57 60 53 52 54 54 55 59 64 65 65 67 71 78 74 72 71 72 66 61 58 57 58 62 61 66 70 79 78 75 77
43 48 55 58 57 58 59 60 62 64 69 68 76 79 78 76 74 78 84 89 66 59 61 74 68 81 92 91 67 82 72 49
54 60 68 64 60 60 64 66 65 69 74 75 84 87 85 88 99 99 99 99 91 74 87 89 88 88 91 63 60 60 55 49
68 72 72 72 80 78 78 76 72 76 81 89 91 90 96 100 100 99 99 97 97 98 98 97 97 93 78 62 52 62 58 56